Regional Weather Roundup
Issued by NWS

Home | Current Version | Previous Version | Text Only | Print | Product List | Glossary On
Versions: 1 2 3 4 5 6 7 8 9 10 11 12 13 14 15 16 17 18 19 20 21 22 23 24 25 26 27 28 29 30 31 32 33 34 35 36 37 38 39 40 41 42 43 44 45 46 47 48 49 50
000
ASUS43 KMKX 301210
RWRWI

WISCONSIN REGIONAL WEATHER ROUNDUP
NATIONAL WEATHER SERVICE MILWAUKEE/SULLIVAN WI
700 AM CDT TUE SEP 30 2014

NOTE: "FAIR" INDICATES FEW OR NO CLOUDS BELOW 12,000 FEET WITH NO
SIGNIFICANT WEATHER AND/OR OBSTRUCTIONS TO VISIBILITY.

WIZ001-002-006>008-014>016-023>028-301300-
NORTHWEST WISCONSIN

CITY           SKY/WX    TMP DP  RH WIND       PRES   REMARKS
SUPERIOR ARPT  CLOUDY    43  39  86 SE7       30.15S
6HR MIN TEMP:  43; 6HR MAX TEMP:  44;

ASHLAND        CLOUDY    42  38  85 SE3       30.16F
6HR MIN TEMP:  41; 6HR MAX TEMP:  44;

HAYWARD        CLOUDY    40  38  93 E5        30.13F
6HR MIN TEMP:  40; 6HR MAX TEMP:  42;

SIREN          CLOUDY    41  39  90 E6        30.10F
6HR MIN TEMP:  41; 6HR MAX TEMP:  42;

CUMBERLAND     CLOUDY    37  36  93 E5        30.11S WCI  34
RICE LAKE      CLOUDY    40  37  87 NE9       30.13F WCI  34
6HR MIN TEMP:  40; 6HR MAX TEMP:  41;

CHETEK         CLOUDY    40  37  90 E6        30.12S
6HR MIN TEMP:  40; 6HR MAX TEMP:  41;

LADYSMITH      CLOUDY    39  37  89 NE7       30.14S WCI  34
6HR MIN TEMP:  39; 6HR MAX TEMP:  42;

EAU CLAIRE     CLOUDY    41  36  82 E12       30.10F
6HR MIN TEMP:  41; 6HR MAX TEMP:  43;

MENOMONIE      CLOUDY    42  38  86 E7        30.11S
6HR MIN TEMP:  42; 6HR MAX TEMP:  44;

NEW RICHMOND   CLOUDY    41  38  87 E9        30.10S
6HR MIN TEMP:  40; 6HR MAX TEMP:  42;

OSCEOLA        CLOUDY    41  40  97 E9        30.12F
6HR MIN TEMP:  41; 6HR MAX TEMP:  44;

$$

WIZ003>005-009-010-017-018-301300-
NORTH CENTRAL WISCONSIN

CITY           SKY/WX    TMP DP  RH WIND       PRES   REMARKS
MANITOWISH WTR CLOUDY    36  36 100 N6        30.13S WCI  31
6HR MIN TEMP:  36; 6HR MAX TEMP:  37;

ARBOR VITAE    CLOUDY    39  37  91 NE3       30.13R
6HR MIN TEMP:  39; 6HR MAX TEMP:  39;

WOODRUFF       CLOUDY    39  37  91 NE3       30.13R
6HR MIN TEMP:  39; 6HR MAX TEMP:  39;

RHINELANDER    CLOUDY    38  37  97 NE3       30.13S
6HR MIN TEMP:  37; 6HR MAX TEMP:  38;

EAGLE RIVER    LGT SNOW  37  37 100 NE6       30.12S WCI  33
6HR MIN TEMP:  37; 6HR MAX TEMP:  38;

LAND O LAKES   CLOUDY    38  38 100 N6        30.13F FOG     WCI  33
6HR MIN TEMP:  38; 6HR MAX TEMP:  38;

PHILLIPS       CLOUDY    37  36  96 NE7       30.12S WCI  32
6HR MIN TEMP:  37; 6HR MAX TEMP:  38;

TOMAHAWK       CLOUDY    38  35  91 CALM      30.12F
6HR MIN TEMP:  37; 6HR MAX TEMP:  38;

MEDFORD        CLOUDY    37  36  93 N6        30.12S WCI  33
6HR MIN TEMP:  37; 6HR MAX TEMP:  38;

MERRILL        CLOUDY    39  38  96 NE3       30.11F
6HR MIN TEMP:  39; 6HR MAX TEMP:  39;

$$

WIZ029-030-035-036-043>047-301300-
CENTRAL WISCONSIN

CITY           SKY/WX    TMP DP  RH WIND       PRES   REMARKS
WAUSAU         CLOUDY    39  36  89 N5        30.10F
6HR MIN TEMP:  39; 6HR MAX TEMP:  41;

MOSINEE        CLOUDY    39  37  93 N8        30.12S WCI  34
MARSHFIELD     CLOUDY    40  37  89 NE6       30.11S
6HR MIN TEMP:  40; 6HR MAX TEMP:  42;

STEVENS POINT  CLOUDY    38  36  91 NE5       30.12F WCI  35
6HR MIN TEMP:  38; 6HR MAX TEMP:  40;

WAUPACA        CLOUDY    44  40  85 N5        30.11F
6HR MIN TEMP:  43; 6HR MAX TEMP:  46;

WAUTOMA        NOT AVBL
WISC RAPIDS    CLOUDY    41  36  82 VRB6      30.13S
6HR MIN TEMP:  41; 6HR MAX TEMP:  45;

CAMP DOUGLAS   CLOUDY    41  41 100 NE8       30.11S
$$

WIZ011>013-019>022-031-037>040-048>050-301300-
NORTHEAST WISCONSIN

CITY           SKY/WX    TMP DP  RH WIND       PRES   REMARKS
ANTIGO         CLOUDY    38  37  94 CALM      30.11S
SHAWANO        CLOUDY    44  38  78 N7        30.12S
6HR MIN TEMP:  44; 6HR MAX TEMP:  45;

OCONTO         CLOUDY    42  40  91 N3        30.11S
6HR MIN TEMP:  42; 6HR MAX TEMP:  43;

STURGEON BAY   NOT AVBL
GREEN BAY      CLOUDY    43  40  89 N8        30.10F
6HR MIN TEMP:  43; 6HR MAX TEMP:  44;

MANITOWOC      NOT AVBL
APPLETON       CLOUDY    43  37  81 NE9       30.11F
CLINTONVILLE   CLOUDY    43  37  81 N6        30.11S
OSHKOSH        CLOUDY    43  39  86 N10       30.10F
6HR MIN TEMP:  43; 6HR MAX TEMP:  46;

$$

WIZ032>034-041-042-053>061-301300-
SOUTHWEST WISCONSIN

CITY           SKY/WX    TMP DP  RH WIND       PRES   REMARKS
LA CROSSE      CLOUDY    47  41  80 SE7       30.10S
6HR MIN TEMP:  46; 6HR MAX TEMP:  49;

SPARTA         CLOUDY    43  40  90 E5        30.11S
6HR MIN TEMP:  43; 6HR MAX TEMP:  46;

VIROQUA        CLOUDY    43  43 100 CALM      30.08S
6HR MIN TEMP:  43; 6HR MAX TEMP:  46;

BOSCOBEL       CLOUDY    47  43  86 E7        30.09S
6HR MIN TEMP:  47; 6HR MAX TEMP:  54;

PRAIRIE DU CHI CLOUDY    50  45  82 E6        30.06S
6HR MIN TEMP:  50; 6HR MAX TEMP:  54;

PLATTEVILLE    CLOUDY    45  43  91 NE9       30.08R
6HR MIN TEMP:  45; 6HR MAX TEMP:  52;

$$

WIZ056-057-062-063-064-067-068-301300-
SOUTH CENTRAL WISCONSIN

CITY           SKY/WX    TMP DP  RH WIND       PRES   REMARKS
REEDSBURG      CLOUDY    42  41  94 E3        30.09F
6HR MIN TEMP:  42; 6HR MAX TEMP:  49;

BARABOO/DELLS  CLOUDY    42  38  88 E8        30.10S
6HR MIN TEMP:  42; 6HR MAX TEMP:  47;

LONE ROCK      CLOUDY    49  40  71 E10       30.10S
6HR MIN TEMP:  49; 6HR MAX TEMP:  56;

MINERAL POINT  CLOUDY    45  41  87 NE8       30.07S
MADISON        CLOUDY    44  39  82 NE12      30.09F
6HR MIN TEMP:  44; 6HR MAX TEMP:  49;

MIDDLETON      CLOUDY    45  41  86 NE9       30.09F
6HR MIN TEMP:  45; 6HR MAX TEMP:  50;

WATERTOWN      CLOUDY    42  40  93 NE6       30.09S
6HR MIN TEMP:  42; 6HR MAX TEMP:  47;

MONROE         CLOUDY    43  43 100 NE10G16   30.07R
JANESVILLE     CLOUDY    46  39  76 E15       30.08R
$$

WIZ051-052-058>065-066-070>072-301300-
SOUTHEAST WISCONSIN

CITY           SKY/WX    TMP DP  RH WIND       PRES   REMARKS
MILWAUKEE      CLOUDY    46  39  76 N8        30.08R
6HR MIN TEMP:  45; 6HR MAX TEMP:  49;

WAUKESHA       CLOUDY    43  37  81 N8        30.10S
MILWAUKEE/TIMM CLOUDY    45  37  76 N10       30.09S
RACINE         CLOUDY    45  41  86 NW7       30.08S
6HR MIN TEMP:  45; 6HR MAX TEMP:  50; 6HR PCP: TRACE;

BURLINGTON     CLOUDY    43  38  85 N6        30.08S
6HR MIN TEMP:  42; 6HR MAX TEMP:  47;

KENOSHA        CLOUDY    45  42  89 NW10      30.07S
6HR MIN TEMP:  45; 6HR MAX TEMP:  50;

FOND DU LAC    CLOUDY    45  39  79 N10       30.10S
6HR MIN TEMP:  44; 6HR MAX TEMP:  46;

SHEBOYGAN      CLOUDY    44  40  85 N7        30.09S
6HR MIN TEMP:  44; 6HR MAX TEMP:  45;

WEST BEND      CLOUDY    43  37  81 NE10      30.09S
JUNEAU         CLOUDY    43  40  88 N6        30.10S
6HR MIN TEMP:  42; 6HR MAX TEMP:  46;

$$

LSZ147-162-301300-
LAKE SUPERIOR

STATION/POSITION TIME  TEMP    WIND        PRES    WAVE
                       AIR SEA DIR/SP/G            HT/PER
                 (UTC) (F)     (DEG/KT/KT) (MB)    (FT/S)
$$

LMZ867-665-643>646-301300-
LAKE MICHIGAN

STATION/POSITION TIME  TEMP    WIND        PRES    WAVE
                       AIR SEA DIR/SP/G            HT/PER
                 (UTC) (F)     (DEG/KT/KT) (MB)    (FT/S)
$$

TC  - TEMPERATURE IN CELSIUS
VSB - VISIBILITY IN STATUTE MILES
WCI - WIND CHILL INDEX
HX  - HEAT INDEX



USA.gov is the U.S. government's official web portal to all federal, state and local government web resources and services.